Torna al catalogo

STARLINK-3265

AttivoComunicazioniVLEO
NORAD 50180·PAYLOAD·🇺🇸 United States

Lanciato Dec 18, 2021 da Vandenberg Space Force Base

Loading…

Prossimi Passaggi (prossime 24 ore)

TLE

AggiornatoSource: CelesTrak SupGP

Epoca: Sep 14, 2026, 20:34 UTC

1 50180C 21125AA  26257.85743056 -.00018749  00000+0 -60304-3 0  2578
2 50180  53.1576 108.0410 0001377  84.1235 286.4080 15.31703747    15

Traccia STARLINK-3265 in tempo reale con AllMySat

Download on the App Store